Location: Austin
(30.3000°N, 97.7500°W)
Time: 11:13:56
(UTC-05:00)

Cosmos 1743 - Pass Details

Date: 05 September 2024
Orbit: 466 x 482 km, 82.5° (Epoch: 11 September)

Event Time Altitude Azimuth Distance (km) Brightness Sun altitude
Rises 21:02:28 0° 182° (S) 2,511 6.0 -16.5°
Reaches altitude 10° 21:04:33 10° 181° (S) 1,635 5.1 -16.9°
Maximum altitude 21:08:07 77° 95° (E) 489 2.3 -17.6°
Drops below altitude 10° 21:11:41 10° 9° (N) 1,636 5.3 -18.4°
Sets 21:13:46 0° 8° (N) 2,514 6.3 -18.8°
